Wind_Gust
14 20 14 16 17 20 21 20 22 27 27 28 28 26 29 13 14 16 17 10 17 17 12 12 11 12 18 22 19 20 26 21 21 21 18 21 14 19 18 21 25 27 28 28 28 29 28 22 22 24 24 24 24 24 22 22 23 23 23 21 21 21 20 20 20 19 19 18 18 16 15 13 13 14 15 16 15 14 17 20 21 21 21 22 22 22 22 22 21 21 21 21 20 20 19 19 18
19 13 13 14 19 21 21 17 30 25 28 29 29 25 31 20 13 14 14 11 17 15 13 12 10 11 11 14 14 22 28 26 23 27 23 20 18 18 19 21 25 27 26 28 27 27 27 27 21 25 25 25 25 25 25 24 23 24 23 22 21 20 20 20 20 20 18 18 18 17 15 13 13 14 13 12 11 13 15 17 20 21 21 21 21 21 21 21 21 20 20 18 18 17 17 18 17
15 15 17 17 20 23 22 18 25 25 28 29 26 28 23 16 14 14 12 11 12 11 9 9 10 11 13 13 15 17 20 20 23 23 25 19 21 20 21 23 24 24 25 26 27 27 27 26 20 23 25 25 24 25 25 25 24 24 23 22 21 21 21 20 20 20 19 18 18 18 16 14 12 12 11 10 12 12 13 14 18 20 20 20 20 21 21 20 19 18 17 16 15 15 15 15 16
18 14 21 16 22 21 24 25 26 29 31 30 29 19 17 15 14 17 11 11 11 10 10 14 17 15 16 13 21 23 19 21 20 19 26 21 20 23 24 24 23 24 24 25 26 27 25 25 21 22 24 24 24 24 25 25 24 23 22 22 21 22 21 20 20 20 19 19 18 18 17 15 13 12 11 11 11 11 11 13 13 18 18 18 19 18 18 18 17 16 15 15 13 13 13 14 15
18 15 17 20 22 24 25 27 27 27 31 28 31 20 11 11 17 13 11 11 12 12 13 10 12 13 15 20 15 18 22 20 18 17 25 20 22 23 24 24 24 23 25 25 25 25 26 25 21 20 21 24 24 24 24 23 23 22 22 21 21 21 21 21 20 20 20 19 19 18 18 16 14 13 10 11 10 10 11 13 13 12 14 13 13 13 13 13 15 14 14 12 13 13 14 15 16
18 19 15 19 25 26 27 26 28 29 29 30 27 22 15 14 14 11 11 13 12 12 11 14 16 26 17 21 22 20 17 10 17 15 19 20 22 24 23 21 24 24 24 24 24 24 27 23 22 20 20 23 23 24 23 23 22 22 21 21 21 21 20 20 20 20 21 20 20 19 18 17 15 13 11 13 13 15 15 14 13 14 16 16 17 17 16 15 13 12 11 12 14 15 16 17 16
20 18 21 21 28 24 27 27 29 29 29 28 31 26 17 15 10 13 11 12 13 12 13 13 11 14 20 25 26 22 15 14 15 19 16 22 22 22 22 23 23 23 23 24 23 24 28 19 19 19 21 22 22 22 22 22 22 21 21 21 21 21 21 20 18 19 20 19 19 19 18 17 15 13 14 15 16 16 16 14 14 14 15 14 16 16 15 14 12 12 11 13 14 15 16 16 16
16 23 20 23 24 26 28 29 31 27 24 11 13 16 13 12 12 13 13 14 22 23 20 11 13 19 19 19 19 17 17 20 20 19 23 23 22 21 21 24 24 24 24 23 22 24 25 18 18 18 20 21 23 23 22 22 21 20 21 20 21 20 21 20 19 17 17 18 20 19 19 18 17 14 15 16 16 16 16 15 14 14 13 13 13 15 14 13 12 11 13 14 15 15 15 15 15
20 24 13 21 25 28 26 29 29 28 32 15 15 13 10 15 15 16 16 16 15 15 16 16 13 21 23 17 21 19 18 12 15 20 21 22 21 22 23 22 25 24 24 24 25 27 26 17 17 18 20 22 22 22 22 22 20 20 20 20 19 19 18 20 19 16 16 16 17 19 19 18 16 14 14 15 16 15 16 15 14 13 13 13 14 13 13 13 12 12 12 13 14 14 14 15 15
22 22 21 26 22 29 27 27 29 27 27 22 18 14 16 19 17 18 17 17 16 15 17 14 15 15 24 22 23 17 17 13 17 20 20 20 20 20 21 22 22 24 22 24 27 27 25 21 15 17 18 20 21 20 19 19 20 19 20 19 16 16 17 17 16 15 15 15 15 16 16 18 17 16 14 14 15 15 15 14 13 13 13 14 14 13 13 12 12 12 12 13 13 13 14 14 14
26 25 22 26 25 27 28 25 25 23 23 16 16 14 14 16 16 17 16 18 16 17 15 14 20 16 17 23 22 17 13 14 17 20 20 19 19 20 22 21 22 22 24 23 25 26 28 26 21 15 16 17 17 17 17 18 17 18 17 16 16 16 16 16 16 15 14 14 16 17 17 17 17 17 16 15 15 15 15 15 14 14 13 13 13 12 12 12 12 11 11 12 12 12 12 14 14
26 23 23 27 26 25 25 27 25 20 13 13 16 15 17 17 16 18 17 20 18 18 17 20 23 19 19 21 19 16 14 16 17 19 19 19 21 19 20 22 21 21 24 24 27 27 26 26 26 21 15 14 14 15 16 16 16 16 16 16 16 16 15 16 16 15 14 14 17 17 16 16 16 16 15 16 15 16 15 15 15 15 14 14 14 13 12 12 11 10 10 12 12 12 12 13 13
26 21 22 26 26 26 24 25 20 16 17 19 20 19 13 17 18 16 19 20 20 20 20 23 14 20 19 20 23 17 16 15 16 18 19 19 20 21 19 20 21 23 24 25 26 27 27 26 27 26 21 16 14 13 13 14 14 14 15 16 16 16 16 16 16 16 16 16 16 17 17 15 15 15 17 16 15 15 15 14 14 14 14 15 15 14 12 12 11 11 11 13 13 12 12 12 12
26 23 23 26 22 27 27 21 19 22 25 22 18 15 15 18 19 18 15 19 19 23 21 19 17 17 25 26 20 20 19 17 18 18 19 18 18 19 18 20 21 23 23 23 25 28 27 26 27 26 26 24 23 17 12 12 13 15 16 16 17 17 16 16 17 17 17 16 15 16 16 15 15 16 16 15 15 15 14 13 14 14 15 15 14 13 12 12 12 11 11 13 13 13 13 12 12
25 22 23 24 26 23 22 26 21 22 26 19 17 14 13 20 10 14 19 20 20 16 24 12 13 19 21 23 22 23 24 21 20 18 19 17 17 18 19 20 22 21 22 22 23 26 26 25 27 26 24 24 24 21 22 20 14 14 15 16 16 16 16 16 16 16 17 18 17 16 16 16 16 17 16 15 15 14 14 14 13 14 15 15 15 13 12 12 11 10 12 13 13 13 13 12 11
23 21 22 24 26 24 20 24 24 20 22 12 17 13 19 16 16 19 24 19 26 15 18 22 11 20 19 19 22 29 28 24 21 20 21 19 18 18 20 20 21 21 21 21 22 24 24 25 25 26 26 24 22 21 21 23 19 16 16 16 16 15 15 15 15 16 18 17 17 15 15 19 17 20 17 18 15 13 13 13 13 13 14 15 14 14 12 11 12 12 11 13 14 14 13 12 11
20 20 23 25 26 22 20 22 20 31 20 14 13 16 23 23 18 15 12 15 19 19 16 18 15 14 20 23 31 33 28 23 21 22 21 22 20 21 20 20 20 20 21 21 20 23 24 25 25 26 24 24 22 23 21 22 23 18 17 15 14 14 14 16 17 18 16 16 17 14 13 19 19 21 21 19 16 18 10 12 13 14 14 14 12 11 11 10 10 11 13 15 15 15 14 13 10
20 25 24 25 24 23 16 16 22 20 17 15 15 15 15 19 21 18 21 20 16 20 17 18 19 20 22 27 27 30 28 25 23 23 23 22 20 21 22 20 21 21 22 22 21 21 23 23 22 24 25 25 23 23 22 23 23 23 23 24 23 22 17 16 22 23 19 21 16 21 21 20 19 20 19 16 18 19 17 13 13 13 13 13 11 9 8 7 9 12 15 16 17 17 17 20 15
24 23 25 26 22 20 12 15 15 17 16 14 13 13 15 14 20 24 25 24 21 23 21 20 21 22 23 25 27 26 26 24 23 21 21 21 22 21 21 21 19 20 20 22 21 21 21 24 21 23 24 24 24 21 22 23 24 23 24 25 24 20 22 24 24 23 23 24 24 24 21 18 19 18 19 19 17 13 19 14 14 14 13 13 10 8 8 7 8 12 16 18 18 18 23 17 17
24 23 25 28 19 16 12 12 10 12 16 13 14 14 15 15 16 24 24 24 23 26 28 23 22 23 25 26 25 25 24 24 22 21 21 20 19 20 19 20 21 20 20 21 22 22 23 23 22 23 23 24 24 22 22 23 23 22 23 24 24 25 25 25 23 23 23 23 24 22 19 17 17 15 13 16 18 21 21 13 15 14 14 13 12 10 10 8 10 13 15 17 16 17 18 18 17
22 28 27 21 21 22 16 16 13 11 12 14 14 14 15 19 12 20 17 21 25 25 25 23 22 24 26 25 25 24 24 23 22 20 19 19 18 19 18 19 21 21 21 20 21 22 23 22 22 22 23 24 23 23 21 23 22 23 23 23 23 24 25 24 23 20 19 19 19 17 16 15 16 17 18 18 19 20 19 20 20 20 19 18 14 17 16 17 16 19 20 21 20 20 18 14 14
21 26 24 24 14 17 11 11 9 10 10 15 14 15 14 14 16 18 17 22 26 25 24 26 29 26 27 27 25 24 23 22 22 20 20 18 19 17 16 16 16 17 19 21 21 21 22 21 21 23 22 22 21 20 21 20 21 21 20 21 21 21 21 20 18 18 17 19 17 17 17 16 16 17 17 17 18 18 20 20 20 20 19 19 21 19 18 17 18 19 20 23 21 17 14 14 13
28 22 23 24 20 17 12 14 12 12 15 15 16 14 16 17 17 21 20 18 21 18 21 27 22 23 25 25 26 23 23 22 21 20 19 19 19 17 17 17 18 20 20 20 21 21 22 21 21 22 23 21 20 19 20 19 20 19 18 19 19 19 19 19 19 19 17 19 17 16 17 15 17 18 18 17 18 18 18 18 18 19 19 20 21 18 17 17 17 17 19 19 18 16 17 15 14
26 26 21 25 20 22 14 16 13 16 13 15 15 15 16 13 19 15 22 13 15 18 15 24 24 24 25 27 24 23 23 22 21 19 18 18 17 17 17 17 18 16 18 18 20 20 21 21 21 20 21 21 21 19 18 19 18 17 17 16 18 19 19 21 17 20 19 18 18 16 18 21 18 16 19 19 16 16 17 16 16 17 17 19 20 18 19 18 18 17 17 18 16 18 19 16 15
26 31 20 15 19 22 18 16 17 15 14 16 13 15 13 18 14 23 19 15 15 17 20 22 24 24 23 24 23 21 20 19 19 18 16 17 15 15 16 16 17 17 18 19 19 20 20 20 19 20 19 19 19 19 18 17 18 17 16 17 17 13 17 16 16 15 17 17 16 15 18 20 21 16 16 16 16 17 16 16 16 17 17 18 20 18 19 18 17 16 16 16 15 15 15 14 15
26 24 22 18 17 18 18 17 17 17 18 14 13 17 12 13 10 21 18 14 16 19 20 25 28 24 23 23 22 20 19 18 19 20 19 16 16 17 17 18 17 18 18 18 18 18 18 19 20 20 19 20 19 18 17 16 16 16 17 16 16 17 16 15 14 16 16 17 18 16 20 24 17 16 15 15 17 17 17 16 15 16 17 16 17 17 17 15 15 15 17 16 18 15 15 14 13
20 26 25 22 19 18 16 20 20 19 20 14 18 15 17 12 21 22 14 18 16 19 24 26 28 26 25 23 22 19 19 19 19 19 17 16 17 18 18 18 19 18 17 18 18 18 19 19 19 18 17 16 17 17 16 15 15 16 16 16 16 17 19 15 15 14 15 14 15 17 19 18 17 18 15 14 14 15 14 15 16 16 17 17 17 17 16 16 14 14 16 17 16 16 16 15 15
11 16 20 24 22 20 17 20 21 22 22 19 18 17 16 16 23 19 23 19 19 21 21 26 27 25 24 22 21 19 19 18 19 17 19 19 21 21 19 20 18 17 17 17 18 19 21 18 17 17 17 17 15 15 16 16 19 21 20 15 17 21 16 17 15 14 14 15 15 17 17 18 16 16 15 18 15 13 14 15 15 16 16 16 18 17 17 17 16 15 15 15 14 14 15 15 14
21 16 21 22 24 29 22 23 21 20 24 24 20 18 18 21 25 19 25 21 20 21 20 20 21 22 23 23 22 21 20 19 18 19 18 19 18 19 19 17 18 16 18 25 23 23 20 17 16 20 24 21 22 20 22 20 18 19 15 18 15 13 12 13 13 13 14 14 15 17 18 21 22 17 15 13 12 13 14 14 15 16 16 16 16 16 17 17 17 19 17 16 17 16 15 14 14
21 20 23 22 27 30 26 24 23 24 22 23 21 30 27 26 25 18 21 22 21 19 21 21 22 23 23 22 22 20 19 19 18 18 17 18 17 19 19 17 17 25 23 23 18 19 18 15 16 13 22 21 17 18 14 15 12 12 11 12 11 11 12 13 16 15 13 15 16 16 18 18 17 16 16 14 16 13 13 14 15 14 15 14 15 17 19 18 18 19 19 19 15 17 17 15 16
30 22 23 28 28 32 28 33 27 28 22 20 23 28 28 29 27 22 20 21 22 21 21 23 22 22 22 21 21 21 18 17 16 15 15 14 15 16 16 21 23 23 19 24 21 19 18 21 22 20 21 17 18 17 17 14 13 12 11 11 16 11 11 12 12 14 13 15 17 15 14 16 16 13 16 16 14 11 12 13 16 14 12 13 15 16 18 18 18 18 20 20 19 18 17 17 17
27 29 31 28 29 24 32 31 32 33 28 24 24 31 26 33 31 25 22 22 21 23 23 23 22 25 21 20 20 21 20 17 14 13 13 13 12 20 25 26 21 25 25 23 21 23 20 15 15 16 16 15 18 16 17 15 14 13 13 10 12 11 12 13 13 13 14 14 15 13 12 18 14 12 13 12 11 9 9 12 13 14 12 14 15 15 17 19 18 18 18 18 20 20 19 18 18
30 30 22 29 28 27 33 34 30 31 32 24 29 32 29 31 31 27 23 22 22 22 23 23 25 25 25 19 20 20 20 18 17 15 13 13 23 25 25 23 25 24 19 25 20 15 15 18 19 20 17 18 17 18 16 15 14 14 13 13 16 14 13 14 12 12 15 13 11 13 13 16 16 17 14 12 12 10 10 12 13 13 13 14 14 15 17 17 18 19 17 18 18 20 21 18 17
31 31 29 25 30 31 29 32 30 34 28 31 33 42 23 27 26 24 22 20 20 20 19 23 21 20 24 23 22 20 18 17 17 16 14 19 28 27 30 26 22 20 23 21 19 20 20 19 19 19 16 18 19 16 14 13 13 14 15 15 12 13 14 15 15 15 15 12 11 15 13 13 14 17 19 17 15 14 17 13 12 15 15 14 17 17 16 17 16 18 18 18 20 19 19 18 17
27 28 27 28 30 26 26 38 35 36 30 28 32 36 23 23 23 24 23 23 21 21 20 21 25 21 18 20 24 22 19 15 15 17 16 21 22 21 24 25 23 20 17 19 15 14 17 18 16 18 20 20 20 15 14 14 13 12 12 13 14 16 17 17 16 15 13 9 9 11 11 12 15 18 19 17 17 17 16 16 15 16 16 15 17 15 15 17 15 18 18 18 17 19 16 15 16
24 25 28 26 29 32 27 31 34 35 32 29 33 37 27 22 23 20 19 20 21 20 18 20 25 20 19 19 18 18 18 20 21 19 17 16 21 21 22 19 17 15 18 19 19 20 19 17 17 19 14 15 13 11 11 12 12 13 16 15 17 17 17 15 14 13 11 10 11 14 16 16 17 19 18 17 15 15 14 16 15 17 14 14 14 13 12 14 15 17 19 19 18 17 17 16 17
24 24 28 27 26 28 22 26 32 35 33 29 32 35 28 24 21 20 21 21 19 19 16 18 20 23 22 21 19 18 24 20 21 21 19 19 21 21 19 19 17 14 13 16 16 19 21 17 19 18 19 18 15 14 13 11 12 13 13 14 16 16 13 12 14 14 14 12 14 15 13 15 16 16 16 17 16 16 17 16 16 15 14 16 15 18 15 15 15 15 17 18 18 20 19 18 17
23 24 28 27 27 28 24 21 29 36 30 31 28 36 24 22 19 18 18 23 25 17 15 19 20 22 24 22 19 25 25 24 21 17 19 18 20 19 18 18 17 20 17 18 14 14 16 20 20 18 18 16 15 15 14 13 11 10 10 10 12 13 14 16 16 15 14 13 14 16 16 16 15 17 18 16 17 17 17 17 17 17 16 17 15 15 17 14 15 16 21 20 20 21 19 18 18
21 26 27 26 30 25 24 22 23 31 32 32 30 37 29 20 18 15 15 18 18 12 13 14 16 17 20 21 18 21 22 21 19 17 18 20 19 16 17 18 20 20 21 15 15 15 15 18 18 20 18 16 14 14 14 12 10 11 13 15 15 15 13 14 14 13 14 14 14 14 16 17 17 17 18 18 18 18 18 19 20 19 19 16 17 19 18 17 17 17 18 20 20 18 19 17 18
23 26 29 30 26 32 33 25 26 27 36 29 33 35 28 20 17 15 13 18 16 16 17 16 14 13 13 15 15 25 18 18 17 19 19 20 17 15 16 17 17 15 15 15 14 14 10 10 11 12 13 11 10 11 9 9 9 10 10 11 12 13 13 10 12 12 12 14 16 15 17 17 18 17 18 18 20 19 19 19 19 17 18 20 18 19 19 20 19 18 17 18 18 20 22 19 19
26 25 26 29 27 33 26 29 25 22 32 27 29 31 26 23 24 22 17 15 18 17 17 16 16 18 18 18 20 21 18 18 21 21 20 19 18 17 18 18 17 16 15 16 13 11 12 11 11 11 12 11 10 10 9 9 9 9 10 10 11 12 13 15 13 13 12 14 16 16 16 18 19 18 20 22 20 21 20 19 19 18 20 20 19 20 21 22 20 21 19 20 21 22 21 21 20
30 25 25 24 26 25 28 28 27 30 34 27 27 38 36 27 27 27 22 21 17 17 17 18 19 19 19 20 19 22 20 21 23 21 20 19 18 18 20 18 17 16 17 15 15 14 13 14 14 14 13 12 11 10 10 10 9 9 10 12 14 14 16 14 13 12 13 15 16 14 17 16 18 19 21 18 20 21 20 21 19 19 20 19 21 22 20 20 20 21 21 20 20 22 20 20 18
27 31 27 26 25 26 27 29 28 31 35 32 29 32 29 29 32 29 24 20 20 19 19 20 20 20 20 22 22 23 24 24 23 20 18 18 16 17 15 15 16 16 14 14 16 15 14 14 14 12 11 10 11 11 11 12 11 11 10 12 14 14 15 13 11 10 11 12 15 15 13 14 18 18 18 18 19 19 19 20 19 20 21 21 20 21 21 22 23 23 22 23 21 20 20 20 19
31 22 29 25 27 32 27 28 28 25 22 29 32 36 27 29 30 27 25 24 22 22 20 20 20 19 21 21 21 21 22 21 21 19 19 19 18 16 16 15 15 15 14 14 13 13 14 14 11 10 9 9 10 12 12 12 10 9 9 11 11 14 14 14 11 10 10 11 19 18 18 17 19 20 20 19 19 18 18 19 19 19 20 20 21 23 21 19 19 19 21 23 23 21 21 21 21
27 24 28 22 21 27 31 30 29 27 27 31 36 33 37 28 27 24 27 28 26 24 22 22 21 22 23 23 23 23 23 22 21 20 19 18 16 15 15 17 16 16 15 14 15 14 13 12 11 10 10 9 8 8 7 8 8 8 9 10 12 14 14 14 12 11 11 11 12 17 19 20 21 20 20 19 19 20 18 19 20 20 20 20 21 23 22 21 20 20 22 23 22 21 21 19 18
28 25 26 24 20 21 23 27 28 29 30 27 30 32 36 28 30 30 28 28 28 27 24 24 23 23 23 23 22 22 22 23 23 21 19 18 17 17 16 17 18 17 15 14 13 14 13 12 12 11 11 10 10 7 7 8 8 9 11 11 13 14 14 14 13 12 12 13 14 14 16 18 20 19 19 19 19 20 19 19 20 21 21 20 20 22 22 23 22 22 25 23 21 21 21 21 19
22 22 29 30 25 24 23 28 29 32 33 31 26 30 33 28 28 31 34 36 29 28 26 25 23 21 20 20 20 22 22 21 21 21 21 20 19 19 18 18 19 19 17 16 16 14 14 13 12 12 11 10 7 8 9 8 8 10 13 12 14 15 14 14 14 14 15 14 15 15 15 18 20 21 20 19 19 20 20 19 20 20 20 19 20 21 23 22 22 20 21 21 21 21 21 20 20
23 31 30 29 27 22 23 25 24 34 34 30 29 30 33 32 28 31 25 26 29 29 28 28 24 21 20 19 20 20 20 19 20 20 20 19 20 20 19 19 18 18 19 19 17 17 16 17 17 14 13 14 12 12 11 11 12 11 13 15 17 15 15 15 15 16 16 18 16 17 18 20 20 19 18 19 20 19 19 19 19 20 21 20 21 21 20 21 20 19 20 20 20 21 19 19 18
29 29 31 32 32 31 31 32 32 31 31 30 31 30 32 36 19 31 28 25 26 23 26 28 24 22 19 19 19 19 18 18 21 20 18 18 19 19 17 17 17 19 20 19 19 17 16 16 16 15 15 16 16 15 15 13 12 12 14 15 15 15 15 16 17 17 16 17 19 16 18 19 19 20 20 21 20 19 20 20 20 22 22 21 19 20 20 19 21 20 20 20 22 22 22 20 19
34 35 34 35 36 35 28 33 26 28 27 28 36 30 29 25 27 25 29 27 26 28 27 25 22 21 20 19 18 19 19 19 19 18 18 18 18 17 17 17 18 19 19 19 17 17 16 16 16 15 15 15 15 14 15 15 15 14 14 15 16 16 15 15 16 18 17 17 17 17 19 20 20 20 20 21 20 20 21 20 20 21 21 20 20 20 20 19 21 22 19 20 23 23 21 20 18
37 26 31 30 30 38 30 35 34 32 28 28 29 40 33 26 24 26 28 29 28 25 27 25 22 21 20 20 20 19 19 17 17 19 20 19 18 17 18 18 18 18 17 17 17 17 17 16 16 16 16 15 15 14 15 15 15 14 14 15 16 16 17 17 16 16 17 18 18 19 19 20 22 21 20 20 19 21 20 19 20 20 20 19 19 21 22 21 19 18 19 22 20 19 22 21 18
33 31 26 31 35 27 30 20 25 32 31 27 27 27 20 23 27 24 27 27 27 25 25 23 22 20 19 20 19 19 19 18 17 17 18 18 18 18 19 19 18 18 17 17 16 16 16 16 15 15 15 15 15 15 15 16 16 16 15 16 16 16 17 17 18 18 18 18 18 19 19 19 20 20 20 19 19 20 19 18 19 20 19 19 19 20 22 22 20 20 19 18 19 19 21 23 19
35 34 38 31 23 25 21 12 15 10 24 30 25 24 24 27 21 23 27 25 25 24 23 22 22 20 19 18 18 18 18 18 18 18 18 18 18 19 19 18 17 18 18 17 16 16 15 16 16 17 17 17 16 16 16 17 17 16 16 16 16 16 17 17 18 18 19 19 20 19 19 19 19 22 21 19 20 19 19 20 20 20 21 19 20 21 21 21 20 20 19 20 24 21 20 20 19
33 40 33 25 25 26 27 27 22 26 32 29 32 29 27 30 28 29 27 27 26 25 24 22 20 19 18 18 18 18 18 17 17 17 16 17 17 18 18 18 18 18 17 17 17 16 17 18 18 19 19 19 18 17 17 17 18 17 16 16 16 17 18 17 18 19 20 21 20 19 18 20 20 21 23 23 23 22 23 22 21 20 21 21 21 21 22 22 21 22 23 24 22 20 21 20 19
29 33 26 43 30 25 27 29 30 34 34 29 30 28 30 34 27 35 28 30 27 23 23 23 21 20 19 18 17 16 15 15 15 16 17 17 18 18 17 17 17 17 17 18 18 18 18 16 17 18 19 19 18 18 18 18 17 18 17 17 17 18 18 19 19 19 20 21 21 19 19 19 18 20 21 22 22 24 24 24 21 21 21 22 21 21 21 22 21 20 21 20 19 21 24 23 22
31 28 36 31 26 28 25 30 22 31 28 23 27 32 31 36 30 35 34 32 29 27 25 23 22 20 20 19 18 16 15 16 16 17 17 18 17 17 18 17 18 18 18 18 17 17 17 18 17 17 18 18 18 19 18 18 18 18 18 19 18 20 21 19 19 21 22 21 22 20 19 19 20 21 21 22 22 23 23 24 23 22 21 23 22 21 22 22 21 20 20 22 22 22 23 22 22
36 33 38 42 34 26 28 27 29 32 32 27 26 29 29 22 33 35 34 33 30 27 27 25 23 21 19 17 16 15 16 16 17 16 16 16 16 16 17 17 17 16 16 17 17 18 18 18 17 18 19 19 19 19 19 19 19 18 18 19 20 20 19 21 20 20 22 22 21 20 19 20 19 22 22 24 25 25 26 28 26 23 23 22 23 23 22 23 21 21 21 21 21 24 24 24 24
32 33 35 38 36 39 37 33 32 35 37 33 30 29 23 21 20 30 32 31 31 27 28 26 23 22 19 18 16 16 15 15 15 15 15 16 16 16 16 18 17 17 17 17 17 17 17 17 18 19 20 20 20 21 20 20 19 19 19 20 21 20 21 20 21 20 21 23 22 21 18 19 19 19 21 23 26 24 22 23 27 24 22 23 23 23 23 23 25 23 22 22 23 24 24 23 23
Wind_Speed
8 9 6 7 7 8 8 6 8 6 7 11 11 11 7 3 5 6 7 1 7 7 3 2 0 3 7 9 7 11 15 8 8 6 4 6 4 9 6 10 16 15 13 14 13 14 15 15 15 15 17 16 15 16 17 17 16 16 16 16 16 15 14 14 14 13 12 11 10 9 9 10 11 11 11 10 8 11 14 14 14 14 15 16 16 16 16 15 15 15 14 14 13 13 12 12 12
7 5 5 6 7 7 6 6 8 10 10 12 11 10 16 8 3 5 5 3 7 5 2 3 0 2 4 4 4 13 17 15 13 11 9 8 8 7 10 12 14 15 14 14 13 14 15 15 14 15 15 17 16 17 18 18 17 16 17 16 16 15 15 14 14 13 12 11 10 10 10 9 11 11 10 8 6 9 13 14 14 14 14 15 15 15 15 15 14 14 13 13 12 12 11 11 11
5 5 6 6 7 8 8 3 8 10 11 12 9 9 11 4 1 3 4 3 5 3 2 1 3 3 4 3 5 6 9 10 12 12 9 10 10 8 11 12 12 14 14 12 14 13 13 15 14 15 15 16 16 17 17 17 17 17 16 16 15 15 15 14 14 13 11 10 10 10 9 9 8 8 7 8 8 8 11 12 14 14 13 13 13 14 14 14 13 12 11 11 10 10 10 10 10
9 6 8 4 6 7 7 7 10 11 13 12 11 4 7 6 3 7 2 3 0 3 3 5 7 6 7 4 10 13 9 7 7 10 9 8 6 11 12 14 14 13 12 12 13 13 13 15 15 15 15 15 16 17 17 17 17 17 16 16 16 15 15 14 14 14 13 11 10 10 9 9 8 8 8 9 8 8 9 9 10 14 13 13 13 13 13 11 11 11 9 9 8 9 10 10 9
8 6 6 7 7 7 7 8 10 10 13 10 12 1 3 2 4 5 3 3 3 3 5 2 1 4 7 10 5 2 8 10 7 8 8 8 10 12 13 14 14 12 11 13 13 13 14 19 16 16 15 16 17 17 16 16 17 17 16 16 16 15 14 14 14 14 13 12 11 10 9 9 8 8 8 9 8 9 9 9 9 10 10 10 10 10 9 7 9 9 8 7 8 9 11 10 9
7 7 5 6 7 6 6 9 11 13 13 12 12 5 3 1 4 1 2 5 2 4 2 7 4 12 5 9 8 6 6 1 6 7 8 9 12 14 13 12 13 11 12 12 13 12 14 19 17 16 16 18 17 17 17 17 17 17 16 15 15 15 15 15 15 15 14 13 11 10 9 9 8 8 9 10 10 11 11 10 10 11 11 12 12 11 10 9 8 7 7 8 9 11 11 11 9
6 6 6 7 9 7 9 11 12 13 12 15 13 13 8 5 2 2 3 4 5 5 6 5 2 5 8 8 12 8 6 5 6 8 7 12 13 14 12 13 13 12 13 12 11 12 17 15 16 16 17 18 17 18 17 17 17 17 16 16 16 15 16 15 14 14 14 13 12 11 10 9 8 9 11 12 11 12 12 10 11 11 11 10 10 10 9 7 7 8 8 10 11 11 11 10 9
7 8 6 8 8 8 11 13 14 11 10 2 3 7 2 4 2 4 2 6 10 9 11 2 3 9 11 11 7 7 9 10 11 11 13 12 13 13 12 12 12 13 12 11 11 12 16 14 15 15 16 17 17 17 17 17 17 16 17 16 16 15 16 15 15 13 14 14 13 12 11 10 8 10 12 12 13 13 12 12 12 11 10 9 9 8 7 6 7 8 10 11 11 11 10 10 9
7 8 4 7 10 8 10 12 12 14 16 5 5 6 5 4 2 2 6 7 7 5 8 8 5 10 10 8 9 8 8 6 8 13 13 13 12 12 9 12 13 12 14 13 12 14 14 13 13 13 15 15 15 16 16 16 16 16 16 16 15 14 14 15 15 13 13 11 12 12 13 10 9 10 11 11 12 12 12 12 11 10 10 9 8 7 6 6 7 8 9 10 11 10 10 9 8
7 7 7 7 7 12 12 11 12 12 13 12 8 6 7 10 8 9 8 8 7 7 8 7 7 6 13 12 9 5 6 7 9 12 11 12 12 11 11 12 13 15 12 13 13 14 12 15 12 12 12 14 14 14 13 14 15 15 15 14 13 13 13 12 12 12 12 13 12 11 12 11 9 10 10 11 11 11 11 10 10 10 9 9 7 7 6 6 7 8 9 10 10 10 9 9 8
8 8 8 9 10 11 12 10 11 11 12 5 6 6 4 4 6 7 8 8 9 8 7 6 9 6 9 11 7 6 7 8 10 11 11 12 12 12 11 11 12 13 13 14 14 13 13 14 15 12 12 12 11 11 12 12 12 12 12 12 12 13 12 11 12 11 11 12 13 12 12 11 10 10 10 10 10 10 10 10 9 10 9 8 7 6 6 6 7 7 8 9 9 9 9 9 8
9 8 8 10 10 10 10 11 12 9 3 4 6 7 7 8 7 7 8 11 7 9 8 10 8 9 9 9 6 6 7 9 9 10 11 11 11 12 11 10 12 12 14 15 16 14 14 14 13 13 12 11 11 11 11 11 11 11 11 12 12 12 12 11 11 10 11 11 12 12 12 11 11 10 9 9 10 10 9 9 10 9 8 8 6 5 5 6 6 7 8 9 9 9 10 9 8
10 8 8 9 10 11 11 12 8 7 6 5 10 8 5 6 8 8 9 11 10 11 10 13 7 10 8 7 7 9 8 8 9 11 10 10 11 10 10 10 12 13 14 15 15 16 16 14 12 13 13 13 10 10 11 11 11 11 12 12 12 12 12 12 11 10 10 13 12 12 12 11 10 10 9 9 10 9 10 9 9 9 8 8 7 6 4 6 6 7 8 9 9 9 9 9 8
9 8 8 10 9 12 11 9 7 9 9 11 8 5 6 8 10 9 6 10 10 11 10 11 3 8 13 11 7 7 8 10 10 10 9 10 10 10 11 11 10 13 14 13 14 16 15 14 13 13 14 13 13 11 10 10 11 11 11 12 11 11 11 11 10 9 10 12 12 12 12 11 11 11 10 9 9 9 8 8 8 9 9 7 7 5 4 4 7 7 8 8 9 9 9 8 8
10 8 8 8 10 9 10 10 8 8 8 9 6 4 4 9 2 6 8 9 10 4 12 4 1 6 5 8 7 9 12 12 12 10 9 9 10 10 11 10 13 10 11 10 14 15 15 14 14 13 14 13 13 11 11 11 11 11 11 11 11 11 11 11 11 10 11 12 13 12 12 12 12 12 12 10 9 9 9 8 8 7 9 8 7 5 4 3 6 7 8 8 9 9 9 8 8
8 7 6 8 10 11 6 10 12 8 3 4 9 4 8 8 8 9 12 9 9 6 5 7 0 7 10 11 12 16 17 15 13 10 10 11 11 10 10 10 11 12 11 12 12 13 13 14 14 13 13 13 12 10 11 13 12 12 11 12 11 11 11 12 11 11 12 12 12 11 11 11 12 12 13 10 10 8 9 9 8 7 8 9 7 5 4 3 4 7 8 8 9 9 9 8 7
7 7 8 9 11 10 8 6 8 10 6 2 3 7 12 10 9 5 3 7 9 9 5 6 5 2 5 10 19 21 18 15 13 13 11 10 8 9 8 8 8 9 9 11 10 11 14 14 15 12 13 14 13 12 11 11 12 12 12 12 11 11 11 12 12 12 11 11 11 9 8 10 10 10 10 9 11 9 7 7 10 9 8 7 7 5 4 3 3 6 8 8 9 10 9 9 7
7 9 8 10 9 11 7 5 7 5 6 5 3 5 5 9 9 7 10 8 8 11 8 6 6 8 12 15 17 19 17 16 14 14 12 10 8 8 9 8 9 9 9 10 10 11 11 12 13 14 13 15 13 10 9 10 11 14 13 12 12 12 12 13 13 12 13 11 12 9 9 8 8 9 9 11 9 9 9 11 10 10 9 8 6 6 4 3 4 6 8 9 9 9 11 7 6
8 8 9 10 9 8 4 5 4 6 3 2 4 4 5 3 12 10 11 14 11 13 9 10 9 11 13 14 16 16 17 15 15 13 13 13 10 11 9 8 9 9 8 7 9 10 11 12 12 13 14 14 15 12 10 11 13 12 13 13 11 14 13 14 13 13 11 11 11 11 9 8 8 8 9 9 9 11 11 11 11 11 10 10 6 5 4 5 5 7 9 9 9 10 10 6 6
10 9 10 11 9 5 4 4 2 4 4 1 2 4 7 5 7 12 12 14 12 14 12 12 10 13 15 16 15 15 15 15 14 14 13 12 10 10 10 10 9 9 10 10 10 10 11 12 13 13 14 15 13 10 10 11 11 11 11 12 12 11 13 12 13 12 12 12 11 10 7 6 6 5 10 12 13 10 11 11 12 12 12 11 9 6 5 5 7 8 10 9 8 8 7 6 7
8 11 10 8 10 10 5 8 4 3 1 3 3 3 7 10 4 8 9 11 14 13 14 14 12 13 16 15 15 15 15 14 14 12 11 11 10 8 8 9 9 9 8 9 8 11 13 12 11 11 13 13 13 11 11 10 11 10 10 11 11 11 12 11 10 10 8 8 7 6 2 2 2 5 7 8 9 9 9 9 9 9 9 9 10 8 7 5 6 7 7 8 8 9 8 5 6
7 12 13 13 2 6 3 3 2 0 1 4 2 8 1 4 6 10 6 11 10 11 14 15 16 13 13 15 15 14 14 14 12 12 11 10 10 9 8 8 8 8 9 9 10 10 13 11 11 11 13 10 10 10 10 9 10 9 10 9 9 9 9 9 8 6 6 7 3 0 4 4 4 6 7 8 7 8 9 9 9 9 9 9 10 8 7 6 7 8 8 9 9 8 6 5 4
11 10 12 13 10 7 4 6 5 5 6 6 6 3 1 9 8 12 11 6 5 7 13 17 13 10 6 12 13 14 14 13 12 12 11 10 10 10 8 8 8 9 8 9 10 10 11 12 9 11 8 10 10 9 8 7 7 8 5 8 8 9 7 6 6 7 5 4 4 5 3 4 7 7 7 7 8 7 8 8 8 8 9 9 10 8 8 8 8 6 7 8 8 4 7 5 4
11 9 11 14 11 12 1 7 6 8 5 6 4 2 8 5 10 6 12 5 4 6 7 14 14 6 7 11 13 13 13 13 12 11 11 10 10 9 9 9 8 8 8 9 10 9 8 10 11 9 10 8 9 6 8 9 9 8 8 6 8 6 8 7 4 2 3 2 4 3 4 5 6 7 9 9 7 8 8 6 7 7 7 9 9 8 9 8 8 7 8 9 7 8 10 5 6
13 13 11 6 11 12 9 8 7 8 7 5 5 6 6 10 3 13 9 6 8 8 9 13 14 13 8 10 13 13 12 11 11 10 9 9 9 9 9 7 9 8 9 9 8 9 9 7 7 6 6 10 5 8 9 6 7 6 6 7 5 4 3 5 7 4 5 5 4 3 4 7 9 6 2 5 6 3 2 6 6 6 7 8 9 8 8 9 8 7 6 7 6 6 5 6 5
12 13 13 9 8 9 10 9 9 9 7 6 5 9 5 6 2 12 10 7 8 9 9 9 13 9 11 12 13 12 11 11 11 11 10 9 9 10 9 9 8 9 8 7 7 7 6 2 10 8 7 4 7 7 1 2 4 5 5 5 5 5 5 4 2 6 6 3 5 6 8 12 9 5 5 2 6 4 3 5 6 7 7 6 7 8 7 7 5 5 6 6 7 6 6 5 5
10 16 14 12 10 9 8 11 11 10 10 7 9 8 9 5 10 8 6 9 8 11 14 10 12 13 15 13 12 11 11 11 11 10 9 8 8 9 10 9 9 8 6 7 4 2 9 4 8 4 3 4 3 7 2 3 4 1 2 4 3 3 10 4 2 2 3 4 6 5 10 7 4 8 7 3 3 4 6 6 6 7 7 7 6 7 6 6 4 4 6 7 6 7 6 5 6
1 6 11 14 13 10 9 11 12 11 9 8 9 8 8 8 12 7 11 10 11 12 13 16 17 14 12 13 12 11 11 10 9 9 11 10 9 9 9 7 7 4 4 0 5 11 12 8 6 8 11 11 7 1 8 9 10 9 8 5 7 6 1 0 2 3 1 4 3 5 4 7 5 4 6 9 6 6 5 5 4 7 6 6 7 6 7 7 6 6 7 7 6 6 6 5 6
12 8 9 12 14 13 12 12 12 8 10 14 11 8 9 10 14 10 14 12 11 12 12 12 11 12 12 11 10 10 10 10 9 9 9 9 9 8 8 6 3 1 8 15 13 13 11 9 7 6 9 10 10 8 4 1 1 3 2 1 1 2 1 1 1 2 4 2 2 4 6 5 3 4 0 2 0 2 5 5 6 3 4 6 6 7 8 8 7 7 7 7 6 7 6 6 6
12 10 10 11 13 14 15 13 13 14 10 14 10 11 11 13 15 7 12 12 11 10 12 11 10 10 10 9 9 9 9 9 8 8 8 8 6 5 5 1 9 14 10 6 7 6 6 7 5 5 4 6 5 4 6 5 3 2 1 0 1 3 2 1 1 1 2 2 1 5 5 2 1 4 4 2 2 2 2 5 7 4 5 3 5 5 6 7 7 7 8 8 8 7 7 7 6
12 11 10 11 11 12 16 15 16 16 11 12 13 11 11 15 16 12 11 12 13 11 11 11 11 10 8 8 8 9 10 8 8 8 7 6 3 2 6 14 14 9 6 2 6 8 6 6 5 5 6 6 6 7 2 1 2 3 1 2 1 5 1 2 3 1 2 2 2 5 5 3 5 5 4 1 1 2 3 3 5 7 3 3 4 5 6 6 7 8 9 9 8 8 7 7 7
11 10 12 11 12 10 18 18 20 17 13 13 13 12 10 19 19 15 13 12 12 12 11 12 9 8 10 8 9 8 8 7 6 6 5 4 1 12 14 12 11 6 3 7 4 4 6 6 6 4 6 5 2 1 2 3 2 2 2 2 3 3 3 4 4 4 2 1 1 3 6 6 3 3 6 4 3 4 4 4 3 6 3 2 3 4 5 7 7 8 8 8 8 9 8 7 7
12 13 11 13 12 10 15 21 18 19 14 14 16 12 14 17 19 16 14 13 12 12 13 13 15 14 8 7 9 6 8 9 7 6 7 6 14 12 10 9 7 9 8 6 7 8 6 6 7 6 9 8 7 7 7 6 5 5 4 5 6 6 4 6 4 3 2 3 1 2 4 6 5 6 5 3 5 5 3 3 4 4 1 1 2 4 5 5 8 6 7 7 8 8 9 9 8
12 13 11 11 14 14 11 19 18 21 16 15 19 18 8 14 16 14 13 11 11 10 10 13 10 9 14 11 10 7 8 8 8 8 8 12 12 12 9 5 4 3 5 6 8 9 10 9 9 7 5 6 5 6 5 5 5 4 7 7 6 5 4 4 3 4 4 2 1 1 3 3 4 7 7 4 5 4 4 5 3 2 2 1 1 1 5 8 7 7 7 7 7 7 7 8 8
11 12 12 11 15 15 13 15 17 21 19 15 19 21 7 13 13 13 13 12 11 11 9 12 12 7 9 10 13 12 8 6 7 9 9 13 13 10 9 6 6 7 8 8 7 4 5 4 5 4 3 4 4 5 5 5 4 4 5 5 6 6 4 3 3 2 4 0 1 1 3 2 4 6 7 7 5 5 5 5 5 5 3 2 2 3 5 9 7 6 5 6 7 7 7 7 7
13 14 12 13 13 14 12 16 18 22 17 15 19 17 12 12 12 11 11 12 12 11 10 9 13 11 9 8 8 8 8 11 11 11 10 9 11 9 6 3 4 6 6 5 5 3 3 6 4 3 3 3 3 2 2 3 3 3 5 5 6 5 3 2 2 3 2 2 2 3 5 4 7 6 8 8 6 5 5 5 5 5 4 4 5 6 6 6 7 4 1 6 9 6 8 6 7
13 13 14 13 10 14 11 15 19 21 17 15 18 20 16 13 12 11 11 11 10 10 7 4 10 10 9 11 8 8 14 9 8 10 11 12 12 10 7 6 2 4 5 4 3 4 4 2 4 4 4 3 3 3 3 4 4 4 3 4 5 3 2 1 2 2 1 1 5 6 6 6 7 8 8 9 7 7 6 5 5 6 6 7 6 8 8 7 3 2 4 4 5 9 7 7 6
12 13 15 12 11 12 13 9 18 19 15 15 17 22 14 12 10 9 9 13 14 8 6 10 10 12 11 12 10 14 11 9 8 9 11 12 11 9 7 5 5 4 4 2 4 6 4 3 3 4 3 2 2 3 3 3 1 1 2 3 3 4 3 3 4 4 4 3 5 6 5 6 6 6 5 6 6 7 6 6 7 7 7 6 7 8 8 5 5 5 5 4 7 11 7 8 5
12 9 12 12 13 10 11 9 11 16 16 12 16 19 14 11 9 7 7 9 8 4 5 7 8 9 10 10 9 12 10 7 7 8 10 11 10 8 4 5 5 6 6 5 4 5 5 4 4 4 3 3 2 1 1 1 2 2 2 2 4 4 3 3 3 3 3 5 5 5 5 5 5 6 8 9 8 8 7 7 8 7 6 7 9 9 6 7 6 8 8 7 9 8 6 6 5
10 11 12 13 12 14 13 12 15 15 13 13 19 19 13 10 6 6 4 8 7 8 9 7 5 3 5 4 8 13 7 7 9 10 11 10 7 7 6 5 5 6 7 7 6 6 4 4 4 3 2 2 4 3 2 3 3 1 0 1 2 3 3 3 4 3 2 4 4 5 6 5 7 8 9 10 9 8 8 8 7 7 8 6 8 8 8 8 9 8 9 11 7 7 7 7 7
13 13 12 13 13 17 12 12 13 10 18 17 18 13 10 10 11 9 7 6 9 8 8 8 7 8 9 9 11 11 7 8 9 11 10 10 9 9 9 7 6 6 7 8 6 5 4 5 5 5 5 5 3 2 1 1 2 2 1 1 2 4 4 4 4 4 2 2 1 4 6 8 10 9 9 9 8 9 9 8 8 8 7 8 7 9 7 8 7 8 7 7 9 7 7 6 5
13 15 14 12 15 13 10 15 14 10 14 13 12 13 13 13 15 13 9 8 8 8 9 9 11 10 9 11 10 13 8 8 9 10 11 11 9 11 11 9 7 7 6 6 6 5 5 6 7 6 4 3 4 4 3 3 3 1 1 1 2 3 4 2 3 3 4 4 6 7 9 8 8 9 9 8 8 8 8 9 7 5 9 9 10 9 6 5 6 7 8 10 9 7 2 2 1
11 13 17 14 15 12 17 18 14 13 14 14 13 13 9 13 16 16 12 11 10 10 9 10 10 9 7 9 11 11 10 10 11 11 10 10 8 7 8 9 9 7 6 6 6 6 6 6 4 3 2 2 1 2 2 1 1 1 1 3 3 4 5 2 3 0 2 3 3 3 5 5 7 8 8 8 8 9 9 8 8 8 8 10 10 8 7 11 11 12 10 9 7 5 3 4 7
12 11 18 15 16 20 12 14 14 10 10 14 18 13 10 11 13 14 14 13 12 12 11 9 9 10 9 9 10 12 11 11 10 11 10 9 8 8 9 9 8 8 7 6 6 6 6 5 4 4 2 1 2 2 1 1 1 0 2 3 3 4 4 4 3 2 2 2 9 6 5 5 9 9 9 10 10 10 9 9 8 8 8 9 8 10 10 9 7 8 9 7 6 5 7 6 8
10 13 15 11 12 14 18 15 13 11 13 13 16 19 13 7 9 14 16 16 15 14 12 11 11 11 11 12 12 13 11 10 10 9 9 9 9 8 8 9 9 8 7 7 6 5 5 5 4 4 3 2 2 3 1 2 2 3 3 3 3 4 4 4 4 4 4 4 4 7 6 6 7 10 10 9 9 9 9 8 9 9 7 5 5 10 11 9 8 7 6 5 6 7 6 8 7
15 14 15 11 9 10 11 12 13 14 13 12 15 16 12 11 13 12 15 15 15 14 13 13 12 12 11 11 11 12 12 11 11 11 11 11 10 10 9 10 10 9 7 7 6 5 4 4 4 4 3 3 3 1 1 2 2 2 4 3 5 5 5 5 4 5 5 5 7 7 8 8 7 6 8 10 9 10 10 10 9 10 9 9 8 7 10 11 10 8 7 7 7 9 7 6 6
14 10 16 14 12 9 10 12 11 11 12 14 15 17 15 7 10 13 15 15 14 14 13 12 13 13 11 9 11 11 10 10 10 10 10 11 10 10 10 11 10 9 8 9 8 8 7 6 5 5 5 3 2 2 3 3 3 4 4 4 6 7 6 5 6 6 7 6 6 7 7 7 9 9 9 10 10 11 11 10 10 9 9 7 6 9 9 8 9 8 6 8 10 9 8 7 7
14 10 13 13 11 10 9 9 11 10 12 11 13 16 20 12 10 12 12 15 17 16 16 17 14 13 11 10 10 10 9 9 9 9 9 9 10 10 9 9 9 8 8 8 7 7 6 6 6 6 6 6 6 6 5 5 4 4 5 6 7 7 7 6 6 8 6 10 7 7 8 8 8 8 9 9 10 10 10 10 10 9 9 8 9 8 8 9 8 8 9 11 10 12 6 7 7
14 13 14 14 11 8 10 11 12 11 9 13 17 18 15 16 5 13 13 14 14 13 13 16 15 13 11 11 10 10 9 9 9 9 8 8 8 8 8 8 8 8 8 8 7 6 5 6 6 6 6 6 6 5 6 7 7 6 6 6 7 7 7 7 8 8 8 6 8 7 8 8 8 9 8 9 10 11 10 10 10 10 8 8 8 9 8 9 9 8 9 9 9 8 8 9 9
16 15 15 14 12 12 11 12 7 9 12 10 16 18 10 10 11 11 16 12 15 16 16 15 13 13 12 10 10 9 9 9 9 8 8 8 7 7 7 7 7 7 8 7 7 7 6 5 7 7 6 6 6 6 7 7 6 7 7 7 7 8 8 7 7 9 8 7 5 6 7 8 9 8 8 9 9 10 9 10 10 9 10 8 7 8 9 9 10 9 8 9 9 7 8 11 9
16 13 13 13 11 10 10 11 12 13 10 13 17 17 10 11 8 10 16 17 17 15 15 14 13 13 11 10 11 10 9 9 8 8 8 7 7 7 7 7 7 7 7 7 7 7 7 7 7 8 8 8 8 8 7 7 7 8 7 7 8 8 8 8 7 7 8 8 7 6 6 7 8 10 9 8 8 9 10 10 10 10 10 10 7 7 8 10 10 8 8 9 7 6 7 7 7
14 13 11 13 14 10 11 6 10 11 9 10 10 1 7 7 11 12 12 16 16 15 15 13 13 11 11 10 9 9 9 8 8 8 8 8 8 7 7 7 7 7 8 7 7 7 7 7 8 8 8 8 8 8 8 8 8 7 8 8 8 8 8 8 8 8 8 8 9 9 7 7 7 9 6 6 9 8 9 9 10 10 10 9 7 9 11 11 11 10 9 8 8 6 7 9 7
14 14 15 13 11 10 7 4 5 2 9 10 4 7 9 12 8 11 14 15 15 15 14 13 12 11 11 9 9 9 8 8 7 7 7 7 7 7 6 6 6 6 6 7 7 7 8 8 8 8 8 8 8 8 8 8 8 8 8 8 8 8 9 10 9 10 11 10 10 9 9 9 8 7 6 6 7 8 9 10 10 10 9 7 8 8 11 12 11 10 9 9 9 8 8 9 7
11 14 13 9 10 10 6 7 7 7 11 8 14 11 10 12 5 11 14 15 15 15 14 12 12 11 10 9 8 8 8 8 8 7 7 7 7 7 7 6 7 8 8 7 8 6 7 7 8 8 8 9 9 9 8 8 8 8 8 8 9 9 9 9 10 11 10 11 10 9 9 9 9 7 7 6 6 9 9 12 12 10 10 8 9 11 12 12 12 10 11 10 8 7 7 7 8
14 14 11 13 10 11 7 6 12 13 12 8 13 15 11 11 9 13 14 16 17 14 14 13 12 11 11 10 10 8 7 7 6 6 6 6 6 7 7 6 6 7 6 6 6 6 7 7 7 7 9 9 9 8 9 8 8 7 7 8 9 9 9 10 10 10 11 11 11 10 10 8 9 8 8 8 8 9 10 14 11 10 9 10 9 9 10 11 11 10 10 9 8 9 10 9 9
18 16 15 14 9 10 9 7 8 9 10 8 10 14 8 14 10 20 19 19 18 16 15 12 12 12 10 10 9 8 7 6 6 6 6 6 7 7 6 6 6 7 7 6 7 6 7 7 8 9 9 9 10 10 10 9 9 9 9 9 9 10 11 10 10 11 11 12 12 11 10 9 7 9 10 9 8 6 10 13 12 9 10 11 11 10 9 10 10 10 9 10 8 8 10 10 9
16 13 14 14 12 11 10 7 10 10 9 10 7 10 8 4 15 20 20 19 19 16 14 13 12 12 11 10 8 7 7 6 6 6 6 6 6 6 6 5 5 6 5 5 5 6 6 7 8 8 9 10 10 10 10 9 9 9 10 11 10 10 11 11 11 11 12 12 12 11 10 8 8 6 7 9 10 9 10 14 16 11 11 10 10 11 9 8 10 10 10 11 9 7 9 8 4
14 13 13 15 16 15 15 12 10 11 11 9 9 9 6 5 1 15 17 17 16 15 15 14 14 13 11 9 9 8 7 7 6 6 5 5 5 5 6 6 6 6 7 7 6 5 7 9 9 9 9 10 11 10 10 10 9 10 11 11 11 10 10 10 12 12 12 12 12 11 9 9 9 7 6 9 9 7 9 13 15 15 11 11 11 9 8 8 11 11 11 8 10 9 6 3 5
Wind_Direction
251 226 245 250 257 263 269 222 261 192 236 253 264 255 276 64 75 272 281 180 259 81 340 297 52 247 287 359 49 63 39 20 5 308 65 125 175 119 130 147 130 135 141 140 134 138 133 128 131 127 126 124 125 127 127 126 125 126 127 128 129 130 129 131 131 128 128 131 130 127 117 120 124 120 121 128 120 110 107 109 111 113 113 114 113 111 109 105 100 98 96 92 91 89 84 83 84
230 240 239 246 251 259 231 226 251 276 261 258 251 262 253 110 221 261 280 75 15 45 33 17 121 17 330 258 342 109 47 40 50 75 84 114 125 128 120 124 135 135 138 135 142 141 140 137 130 131 128 128 129 131 134 131 128 129 131 131 130 132 132 132 130 130 132 134 131 124 117 111 124 129 134 136 129 111 115 114 112 112 113 114 113 112 109 107 103 100 98 98 97 95 90 86 87
264 219 221 223 239 246 294 220 256 258 259 260 264 269 43 229 327 143 72 34 45 36 91 297 39 183 149 176 185 61 79 66 89 94 102 132 138 136 134 137 134 127 137 142 146 139 141 141 134 132 130 130 133 134 134 133 134 135 135 133 134 134 132 132 132 132 135 134 129 125 119 115 110 115 124 128 113 108 112 116 116 114 112 111 113 112 110 106 102 100 97 94 95 98 96 91 90
280 263 265 234 249 210 250 232 246 259 266 274 288 338 301 26 269 87 78 79 214 182 204 176 200 88 288 214 85 102 94 90 87 119 129 157 134 145 141 139 134 127 145 148 147 140 144 138 135 133 133 132 135 136 138 139 139 138 139 138 138 136 136 136 136 138 139 143 135 129 128 123 110 104 111 117 106 108 115 117 115 117 117 115 113 114 110 111 108 106 100 93 95 102 103 101 95
253 230 247 254 278 240 233 243 249 246 252 258 266 29 8 117 81 93 87 128 157 239 200 135 218 124 72 33 336 53 101 102 77 82 94 112 131 138 139 138 144 137 150 152 143 139 138 140 136 137 138 138 139 142 142 142 141 140 141 141 140 138 136 137 137 140 144 145 140 139 138 130 113 104 110 111 103 103 95 84 89 101 101 100 93 95 92 86 98 93 89 94 105 110 107 105 99
238 245 198 260 244 356 292 254 239 244 260 275 269 292 75 268 109 70 62 197 101 218 239 194 280 160 142 53 35 85 340 136 129 104 125 117 131 129 137 137 139 148 153 148 141 139 143 139 138 136 141 144 144 144 144 142 141 141 143 140 136 138 141 143 145 145 144 146 147 146 146 133 116 106 104 103 101 101 93 88 92 93 96 96 97 96 96 91 84 90 95 96 103 110 108 103 104
217 222 201 220 251 251 253 249 253 261 252 240 252 270 41 81 98 156 189 200 166 203 169 206 239 128 138 118 85 55 46 14 145 112 121 130 128 135 144 144 146 152 145 141 141 137 142 137 136 138 141 143 144 144 143 142 143 142 140 139 141 144 145 145 143 144 145 146 152 153 147 138 117 107 108 109 109 105 102 104 102 100 100 102 103 98 94 96 90 92 95 97 102 108 107 106 102
266 269 189 229 240 201 232 246 256 259 259 289 342 293 114 201 98 225 207 241 154 214 173 207 214 243 91 177 88 88 49 30 71 103 116 132 138 144 151 148 146 149 142 135 137 133 130 137 137 139 141 142 144 145 143 143 142 142 141 143 146 147 147 148 150 150 148 152 153 156 154 138 120 113 110 109 111 111 111 112 112 114 114 110 105 102 100 95 96 98 101 102 105 106 106 103 100
221 236 264 267 250 238 241 244 250 241 258 155 249 240 322 302 245 291 242 228 62 248 168 178 157 232 141 121 93 86 71 62 88 103 125 135 146 150 154 151 146 150 147 146 130 125 143 135 138 137 139 140 143 143 143 143 143 144 146 146 148 148 150 153 149 147 149 147 150 154 155 137 127 116 112 112 111 115 118 119 122 123 123 118 108 109 111 103 103 103 105 107 104 103 102 103 103
226 225 213 230 253 250 245 243 246 245 239 254 264 226 203 206 220 223 230 207 211 187 211 187 178 249 123 113 120 140 102 121 124 128 135 144 144 153 153 150 147 150 152 137 128 140 142 143 135 136 138 140 142 145 144 144 146 147 149 147 147 150 155 150 144 150 154 151 150 152 155 146 135 126 119 118 118 119 124 126 131 133 130 128 121 124 117 109 107 108 108 107 107 105 106 104 104
235 189 265 266 238 244 247 250 242 234 238 233 242 242 220 221 239 219 223 237 198 203 173 186 191 200 148 92 77 68 108 134 142 141 141 141 150 152 149 153 147 150 141 139 133 134 141 150 139 135 136 141 140 144 144 146 146 147 147 147 149 152 154 147 150 155 153 151 149 149 149 145 136 131 125 126 129 128 130 135 137 138 138 134 136 132 127 118 112 112 112 111 109 110 107 108 104
245 214 199 239 245 245 241 247 255 251 188 215 231 197 193 213 205 229 210 220 183 219 180 185 180 204 133 149 135 120 135 154 150 138 145 146 147 151 148 150 146 143 142 140 133 139 145 146 152 142 139 141 146 143 147 145 147 146 144 149 151 152 152 153 155 154 149 145 144 145 147 145 144 136 133 134 139 142 140 144 142 144 146 144 141 144 136 127 119 114 119 117 113 111 111 109 110
249 238 221 239 245 246 258 264 270 327 291 207 231 136 70 226 218 216 212 216 188 198 187 192 128 211 152 117 98 130 144 151 142 144 149 153 143 147 147 144 148 140 144 147 142 145 146 151 149 157 151 146 144 144 145 149 148 150 151 153 156 154 154 155 157 152 146 144 147 149 149 147 145 142 138 138 144 149 158 154 152 152 154 153 151 152 152 135 124 125 125 121 117 114 114 111 112
232 245 254 246 243 256 254 257 255 250 228 232 108 100 219 227 214 214 230 207 180 200 183 165 163 170 98 120 146 170 158 158 148 152 153 148 141 145 146 142 144 141 152 150 144 146 150 152 150 154 153 159 156 153 149 151 153 155 156 156 155 153 155 154 154 148 146 148 153 153 154 152 150 149 142 144 148 153 152 158 158 164 160 162 159 155 168 147 130 128 129 128 122 119 115 115 112
239 238 259 264 263 246 236 260 246 222 254 104 103 234 235 227 202 213 225 205 183 152 89 143 304 223 164 193 166 177 152 164 152 155 149 145 146 142 145 148 144 151 147 157 153 154 157 150 153 150 162 162 160 163 167 156 156 152 155 154 153 153 155 158 154 149 148 153 157 158 158 156 155 151 149 145 144 140 150 154 160 168 166 167 163 161 181 168 129 133 134 130 129 122 118 117 115
250 252 244 252 242 250 223 227 246 283 138 164 113 207 231 176 198 194 211 269 118 103 185 150 172 316 152 207 172 142 144 150 147 145 148 150 147 144 146 150 149 162 148 161 161 160 157 156 154 156 162 159 164 165 164 167 156 155 153 158 156 156 157 159 157 152 152 157 162 161 162 166 165 155 152 149 144 142 147 176 154 165 171 169 166 175 181 166 130 137 136 136 131 127 123 120 121
233 258 244 231 248 233 245 231 215 228 103 133 126 165 225 187 175 217 93 204 150 144 179 95 131 236 90 67 109 126 136 140 138 145 154 150 153 148 146 154 155 159 156 171 165 167 161 159 159 158 162 156 166 163 162 164 157 157 159 156 159 157 159 159 159 157 157 164 169 167 171 186 172 152 165 161 149 160 160 137 158 163 174 175 170 175 171 144 146 141 143 144 138 136 132 128 126
214 218 237 236 236 236 232 246 208 350 79 75 143 143 237 185 167 164 198 202 161 143 138 80 86 96 91 105 115 124 135 143 145 154 156 157 160 154 156 157 168 166 169 163 171 171 160 163 170 164 158 160 162 161 159 162 161 176 172 167 171 169 163 164 166 175 176 177 183 171 182 187 180 168 173 148 170 145 150 148 163 166 171 176 171 165 152 142 148 159 151 153 147 147 154 156 149
211 224 228 240 220 247 267 223 296 180 79 72 75 197 231 341 178 148 195 198 156 174 152 155 126 115 121 120 122 131 141 145 151 157 159 161 168 164 161 164 171 171 166 163 182 170 166 170 173 163 159 164 160 161 161 162 167 180 173 170 170 177 173 177 178 178 182 179 181 180 188 186 184 174 169 168 164 164 142 157 159 164 166 166 165 139 136 135 147 165 164 160 166 174 194 167 162
216 238 222 233 252 247 186 315 13 308 37 81 242 122 250 138 239 136 216 177 173 192 169 174 169 142 134 133 136 137 143 152 158 160 163 167 170 167 171 170 174 178 171 177 177 173 175 176 174 169 164 164 164 162 164 163 168 177 174 174 173 176 173 184 185 184 186 175 180 188 196 189 175 198 165 172 146 148 139 151 157 156 162 166 155 159 146 161 161 172 171 167 186 201 213 176 168
188 229 237 230 224 249 196 231 253 268 327 348 301 179 212 176 211 193 204 188 191 195 181 184 167 152 138 141 139 142 148 155 157 163 168 168 168 172 172 177 178 175 181 169 178 183 181 180 175 159 172 165 170 164 165 169 169 179 178 177 178 176 177 187 187 189 177 179 178 187 202 271 197 186 175 172 178 165 162 161 161 168 168 170 172 183 183 165 181 179 169 187 201 210 219 189 178
228 220 235 253 29 291 23 187 177 185 235 273 257 220 290 86 223 213 216 204 184 220 166 189 130 154 145 142 142 147 154 154 161 166 170 170 179 176 174 183 180 181 181 185 186 182 189 177 176 171 166 176 171 169 170 165 170 181 180 177 186 179 185 188 169 184 190 169 177 298 211 199 208 195 196 197 188 181 166 166 174 168 172 168 184 184 179 175 206 181 183 183 205 210 223 188 177
240 219 237 248 271 263 197 211 142 212 220 231 228 3 250 224 197 200 208 192 10 39 87 83 115 110 134 136 143 153 154 155 164 169 167 177 180 182 185 184 183 186 184 192 189 183 194 178 183 162 179 175 175 169 168 165 181 168 171 201 183 183 187 178 173 190 157 187 159 211 191 210 215 201 198 225 195 187 177 170 182 166 171 169 181 189 177 180 218 178 194 195 205 196 255 197 173
232 240 200 229 243 243 351 233 150 210 235 230 280 312 236 202 212 173 221 77 155 139 93 107 101 87 141 159 153 156 158 162 164 162 172 177 188 185 192 193 189 190 190 198 188 194 188 163 198 158 173 171 172 178 191 187 178 178 183 182 191 196 183 185 179 113 68 174 194 215 249 246 238 200 197 208 202 186 176 185 179 173 177 173 182 193 175 188 224 197 199 206 205 190 214 178 194
216 239 249 227 220 231 236 235 224 218 235 253 246 241 221 209 271 164 198 126 151 149 104 106 117 137 183 173 161 158 159 159 161 163 173 176 187 186 198 200 195 193 201 196 194 201 168 188 117 215 169 178 180 183 207 170 182 201 179 176 218 174 194 211 118 115 175 223 221 215 219 254 242 218 247 245 151 194 245 165 208 174 199 184 179 195 179 184 207 215 204 214 203 216 197 193 198
218 238 237 236 227 228 223 226 234 221 223 218 235 223 215 208 356 205 152 117 134 122 140 126 130 156 170 188 159 158 155 157 156 169 177 180 183 187 195 202 199 205 202 195 215 182 145 60 179 199 181 175 188 205 74 226 236 188 178 196 211 155 210 40 4 129 167 219 229 232 224 225 235 208 191 242 129 185 201 230 202 188 196 194 177 194 186 185 192 228 204 224 202 207 203 195 197
190 218 236 239 228 223 206 228 208 214 219 194 228 206 196 173 201 176 144 144 143 142 137 165 160 168 182 166 156 153 155 157 164 170 181 182 184 196 198 202 206 204 205 206 190 236 76 64 345 4 276 186 11 5 277 333 309 328 19 360 345 21 20 7 108 264 120 190 220 230 253 254 12 344 335 270 69 173 215 211 200 195 196 190 190 198 183 181 186 231 218 204 211 200 206 189 213
104 265 229 230 240 228 214 211 219 202 209 219 222 210 192 172 208 211 165 151 167 157 153 166 174 169 167 155 152 149 155 158 167 172 183 187 195 198 198 208 207 199 212 184 21 24 55 46 13 351 348 2 1 19 346 12 13 9 4 337 23 23 259 307 342 19 349 244 193 217 279 346 37 317 354 334 16 351 333 284 234 192 196 188 191 201 189 182 190 214 233 192 221 204 209 196 215
245 225 251 226 223 228 216 212 211 205 207 199 201 221 200 188 199 219 156 161 174 167 159 173 153 151 147 155 145 152 156 160 167 181 186 197 200 200 196 200 162 331 19 38 30 34 41 51 39 4 9 11 21 16 23 305 206 266 293 67 23 312 289 254 334 276 250 274 311 24 26 27 354 32 348 168 134 210 274 264 265 259 246 185 187 210 190 202 195 205 215 207 204 213 208 201 214
233 232 244 232 215 221 206 214 208 199 210 188 184 215 194 186 205 156 146 165 178 170 173 174 156 153 147 160 155 152 147 159 176 186 185 206 208 193 198 93 56 42 44 54 73 86 137 114 147 152 175 158 185 175 197 197 203 202 244 328 187 245 226 242 233 221 259 272 18 67 90 170 95 301 279 239 186 193 237 300 281 224 221 195 196 195 203 199 197 200 216 207 206 213 203 204 207
221 225 223 246 218 213 195 200 200 205 189 185 193 223 190 174 204 151 169 171 179 180 184 168 166 148 148 179 157 150 150 166 175 182 176 200 214 143 26 39 58 80 104 100 116 138 130 144 157 163 165 187 184 182 155 139 200 212 185 219 248 248 221 242 218 208 219 227 91 106 140 196 185 210 234 216 107 213 163 215 247 262 228 212 217 204 218 210 215 202 205 209 200 211 206 204 211
215 216 216 223 245 206 189 189 196 204 167 192 198 233 207 175 190 157 174 178 183 187 190 178 148 143 167 180 152 149 150 159 161 155 151 150 120 46 62 78 103 126 170 138 140 131 154 159 182 162 170 191 183 128 127 201 202 35 321 264 242 225 238 233 224 224 231 222 111 130 148 177 190 209 213 214 215 183 176 169 174 268 260 225 235 230 228 229 217 214 216 216 203 208 209 206 211
206 225 213 215 218 232 180 182 189 200 173 192 206 217 223 179 170 161 173 180 193 195 191 171 170 179 187 180 145 151 160 158 157 153 129 124 69 89 96 112 137 163 172 131 159 168 145 158 184 177 177 190 175 166 187 191 174 159 227 236 243 235 214 233 220 202 208 238 165 187 183 160 198 228 216 213 228 186 181 190 202 222 282 256 6 347 270 239 239 215 226 215 220 208 210 206 210
206 206 231 214 209 223 189 166 189 195 189 185 202 231 248 134 142 162 169 190 193 213 186 173 163 144 176 185 155 166 174 160 151 134 116 88 100 94 99 117 133 132 121 165 177 173 173 177 177 190 175 177 164 174 186 193 148 179 226 210 206 227 234 245 250 245 247 248 250 238 244 155 174 203 224 211 228 219 209 209 201 197 230 219 83 243 278 270 238 225 220 213 210 219 217 205 208
199 196 218 211 212 225 174 174 174 202 194 192 200 225 113 135 158 168 177 192 198 215 198 151 132 178 188 189 152 186 169 166 107 101 102 108 104 101 104 142 143 158 151 183 190 174 158 149 157 189 155 157 169 165 163 161 163 186 231 220 226 230 226 246 248 295 305 175 161 2 66 129 190 194 223 217 221 213 225 223 212 205 202 208 198 200 239 255 242 227 234 223 219 215 223 210 208
209 199 205 225 195 207 209 171 181 200 182 194 198 214 157 151 162 158 179 191 196 209 202 167 169 175 192 195 158 169 144 67 80 91 92 92 99 114 139 170 169 160 165 180 161 141 125 155 157 148 162 173 175 165 168 185 194 200 220 234 245 251 233 244 269 198 177 209 209 192 221 203 207 201 201 204 199 213 222 226 220 201 199 201 207 210 221 242 235 189 295 277 251 227 226 216 204
214 204 207 227 208 205 214 177 186 188 186 199 192 212 159 163 147 154 166 184 208 210 175 180 164 172 195 199 158 103 83 105 94 107 104 102 107 125 153 171 170 92 138 179 163 131 133 145 142 156 159 173 179 176 181 206 205 209 237 263 270 261 262 281 238 247 181 252 233 222 206 205 203 197 199 206 207 206 209 217 219 203 210 214 212 218 215 223 229 140 199 223 251 243 213 217 207
239 204 207 211 214 204 204 170 164 182 198 191 198 209 178 132 146 147 150 172 190 192 171 191 212 176 189 204 150 108 124 112 131 109 106 106 111 134 163 158 137 144 107 100 127 105 115 124 140 103 127 163 204 225 185 188 216 323 304 286 282 285 252 225 224 211 201 242 236 229 224 212 201 196 209 209 205 205 206 210 213 216 212 218 220 218 216 208 211 188 201 231 229 226 216 201 212
246 221 202 211 202 213 167 134 179 189 204 190 198 203 182 150 142 143 169 165 130 159 172 188 215 187 184 181 159 130 118 127 116 108 103 102 115 138 133 99 95 97 96 85 92 97 95 109 89 115 121 171 181 196 228 132 125 167 251 317 307 310 302 305 268 264 189 188 218 229 218 214 208 206 212 214 210 213 210 204 211 213 211 216 221 220 207 208 202 211 201 204 216 218 218 205 202
222 212 204 213 188 206 169 171 175 196 202 197 191 206 180 147 146 140 154 158 162 164 169 168 180 225 197 150 150 107 133 147 135 123 108 108 108 123 112 95 84 95 103 104 100 90 73 74 94 94 113 97 86 78 332 58 34 351 21 332 326 308 314 272 262 244 216 216 210 219 222 213 223 227 223 215 221 222 219 212 200 210 218 207 212 212 205 209 210 210 213 212 210 202 210 210 196
221 224 213 210 200 209 194 150 186 175 210 239 178 215 188 173 182 176 162 161 168 155 146 145 152 120 94 95 91 112 132 150 130 119 118 115 119 113 105 92 91 83 72 59 58 70 81 97 108 105 87 76 86 116 145 115 204 213 213 277 299 299 270 268 245 237 193 151 259 216 224 212 221 228 224 223 222 224 226 223 212 197 218 218 218 211 207 213 207 211 211 212 209 215 206 200 191
208 228 236 220 217 188 165 157 182 178 204 229 216 190 213 181 197 191 168 178 178 160 159 157 155 147 113 98 97 115 137 114 118 117 113 108 111 110 103 100 94 77 70 78 83 87 102 97 94 98 115 147 151 156 169 181 182 192 221 251 249 249 264 246 242 256 173 182 199 238 235 222 222 224 226 229 234 230 226 222 223 193 214 227 219 216 212 215 221 218 213 215 207 207 212 56 240
212 202 230 234 226 179 199 174 185 192 197 187 203 206 197 188 195 189 169 184 157 155 157 156 151 131 118 101 102 107 108 109 92 81 97 104 104 96 97 89 88 92 93 99 99 103 104 105 98 90 81 95 101 108 141 168 157 229 247 278 282 289 299 266 257 73 308 163 116 247 238 221 227 228 231 232 231 230 229 228 222 220 225 209 214 222 225 214 203 202 215 201 195 185 164 170 217
220 182 208 230 238 201 186 184 196 198 204 183 202 221 225 180 191 168 172 177 168 159 147 133 118 113 109 103 107 104 92 87 91 90 87 92 88 75 80 84 93 104 112 105 100 88 88 89 101 85 78 23 53 62 124 352 267 306 277 280 286 286 289 298 285 270 191 216 140 236 238 221 224 233 230 234 232 227 229 229 226 228 220 224 205 222 215 216 203 200 197 186 183 178 187 197 213
215 165 199 219 249 204 186 194 198 216 186 202 192 205 234 190 185 176 179 177 172 164 155 143 124 118 107 97 91 94 98 97 97 99 94 89 84 83 79 82 81 83 85 84 83 88 88 87 89 107 100 81 76 54 332 139 285 298 277 271 275 269 269 265 264 241 217 218 189 166 250 259 226 225 231 232 232 233 231 224 226 226 224 222 201 234 223 217 202 192 185 181 192 200 201 212 208
229 179 188 204 232 228 209 198 202 221 208 206 189 195 226 206 165 172 180 184 169 161 148 127 123 118 109 107 101 101 104 103 96 83 78 82 79 67 69 76 72 65 63 72 72 70 72 71 81 82 64 56 18 54 293 269 238 244 263 268 277 274 262 263 261 250 244 217 212 193 190 226 247 244 237 226 227 234 233 228 224 230 226 217 199 229 240 222 207 197 195 191 198 201 210 189 188
223 185 181 200 208 211 210 216 210 219 232 214 195 199 220 197 159 182 184 186 173 149 128 115 105 103 100 103 108 107 100 94 92 87 80 75 67 69 63 63 57 53 50 51 49 45 43 44 35 54 50 46 31 350 313 305 267 256 259 262 269 277 285 291 265 260 243 238 241 208 211 219 215 230 228 223 225 229 232 228 226 224 226 218 215 220 230 240 220 196 202 213 204 200 197 196 186
208 189 197 190 200 212 219 231 229 225 220 200 213 209 202 232 186 196 188 171 159 156 146 132 126 121 114 107 104 100 101 97 89 83 78 73 72 66 66 66 61 61 58 54 48 42 43 36 18 19 35 9 358 350 334 315 308 292 281 279 281 284 285 275 272 267 274 259 237 236 215 223 245 233 220 222 221 222 226 228 225 225 227 221 218 218 222 221 219 211 204 208 198 188 205 215 194
186 192 199 193 183 189 203 200 208 226 226 187 213 213 191 226 199 162 118 126 144 147 145 132 125 116 115 112 108 101 96 93 90 84 77 71 70 67 64 61 60 53 50 48 43 39 35 31 19 8 16 4 353 340 332 332 324 311 307 304 298 293 287 282 279 278 261 259 268 261 256 240 231 228 224 232 226 226 223 226 225 220 218 218 222 218 211 213 219 213 217 215 208 186 187 208 212
189 200 194 194 188 188 202 199 203 213 229 235 200 207 210 98 77 94 122 104 104 108 115 117 119 120 119 113 104 96 89 86 81 78 74 67 65 64 61 57 53 49 42 37 34 25 24 21 13 6 359 354 347 343 335 326 323 323 324 316 308 304 298 285 271 266 272 275 285 295 290 276 259 244 237 235 235 229 225 228 227 222 220 212 211 212 212 211 212 206 200 225 212 202 200 205 204
199 211 205 203 202 188 193 200 196 206 198 212 208 208 149 150 130 124 104 106 104 109 112 111 114 112 109 107 105 97 91 82 81 78 75 74 70 66 58 50 45 41 35 32 25 18 16 10 4 359 351 354 346 343 332 329 325 324 320 318 314 305 302 297 293 284 280 278 275 268 269 292 280 268 252 243 240 243 238 232 225 223 218 215 185 201 225 216 203 202 199 205 205 199 200 199 200
200 209 223 217 212 170 208 204 220 194 205 195 224 151 34 109 118 110 113 113 114 115 114 121 118 118 117 109 103 99 89 87 82 78 77 66 59 54 48 46 42 32 30 25 19 15 13 3 359 356 349 346 342 339 335 332 329 322 323 317 310 309 307 306 301 296 293 287 279 272 267 266 290 279 293 304 276 257 246 240 229 223 220 209 195 204 216 214 208 205 206 194 194 196 196 197 184
182 203 209 215 234 215 203 196 327 301 214 205 162 90 108 116 144 142 126 121 120 123 126 126 122 119 110 103 99 94 92 92 89 85 73 69 63 54 48 43 39 34 28 24 20 14 9 3 359 352 350 343 339 340 334 334 332 328 323 321 316 311 307 301 296 294 291 283 277 280 274 266 256 265 263 252 257 267 272 258 235 226 217 199 216 215 216 212 206 206 206 196 201 198 194 195 173
175 208 203 206 240 258 214 215 197 218 209 199 187 150 153 168 168 164 157 139 138 140 134 129 125 121 112 108 101 98 98 95 96 89 78 70 63 53 44 39 33 28 24 20 20 7 14 9 0 352 351 345 339 339 338 335 332 330 329 327 325 319 309 299 293 288 288 284 280 270 266 262 260 261 264 261 256 250 244 245 240 228 223 206 214 216 210 207 200 203 206 204 193 180 188 193 190
211 204 179 202 186 220 248 242 203 207 209 209 200 174 168 200 167 168 168 159 153 151 140 132 129 122 115 115 110 110 108 100 92 83 73 58 49 43 38 32 29 27 23 21 20 11 15 8 360 354 349 344 344 342 337 332 334 333 332 331 324 311 301 298 295 289 283 282 282 278 269 271 274 267 261 257 255 257 250 245 232 230 220 219 210 225 217 208 207 203 204 203 191 187 192 195 198
228 193 196 206 213 206 215 217 219 217 211 207 191 204 208 203 162 173 167 159 159 151 147 139 136 125 123 121 119 115 109 98 84 71 57 50 44 40 37 29 29 27 23 16 16 15 10 8 2 -0 353 351 349 346 340 339 341 337 335 328 322 319 315 308 299 295 292 289 285 282 279 270 278 280 275 268 265 271 264 270 250 234 233 228 219 218 218 207 205 206 200 206 197 186 192 197 197
203 212 198 190 218 190 231 191 229 204 217 211 214 209 208 186 158 171 164 158 157 163 146 144 134 125 121 118 119 112 103 92 83 73 65 55 51 41 38 34 32 36 33 24 23 22 12 10 7 1 358 352 350 347 343 345 340 342 332 329 326 318 312 305 303 302 301 295 288 286 285 273 254 246 267 282 272 258 266 255 256 240 233 218 209 209 214 210 201 203 204 208 198 194 204 200 175
191 203 206 190 194 186 201 203 212 220 207 216 205 218 114 12 209 153 151 148 152 150 143 140 132 129 125 126 121 118 110 102 93 84 76 69 58 48 40 38 33 28 27 21 19 19 21 15 11 3 0 357 346 349 352 346 343 334 334 330 324 321 319 318 313 306 298 297 293 293 290 272 264 263 253 257 264 264 261 251 243 243 228 227 215 202 203 197 206 198 193 186 191 200 213 200 191